Regional Weather Roundup
Issued by NWS

Home | Current Version | Previous Version | Graphics & Text | Print | Product List | Glossary On
Versions: 1 2 3 4 5 6 7 8 9 10 11 12 13 14 15 16 17 18 19 20 21 22 23 24 25 26 27 28 29 30 31 32 33 34 35 36 37 38 39 40 41 42 43 44 45 46 47 48 49 50
337
ASUS43 KIND 251609
RWRIN

WEATHER ROUNDUP FOR INDIANA
NATIONAL WEATHER SERVICE INDIANAPOLIS IN
1100 AM EST SUN FEB 25 2018

NOTE: "FAIR" INDICATES FEW OR NO CLOUDS BELOW 12,000 FEET WITH NO
SIGNIFICANT WEATHER AND/OR OBSTRUCTIONS TO VISIBILITY.

* - STATION DOES NOT REPORT WEATHER SUCH AS PRECIPITATION OR FOG.

+ - STATION NOT QUALITY CONTROLLED BY THE NATIONAL WEATHER SERVICE.
    USE DATA WITH CAUTION...ESPECIALLY DEWPOINT AND RELATIVE
    HUMIDITY OBSERVATIONS.

INZ001>003-010>013-019-020-251700-
NORTHWEST INDIANA

CITY           SKY/WX    TMP DP  RH WIND       PRES   REMARKS
GARY /AIRPORT/ MOSUNNY   39  25  56 W23G39    29.90R WCI  29
LA PORTE +     PTSUNNY   36  27  71 SW21G28   29.91R WCI  25
MICHIGAN CITY+ PTSUNNY   37  28  70 W13G21    29.91R WCI  29
MONTICELLO +   CLOUDY    36  29  75 SW21G26   29.97S WCI  25
RENSSELAER +   CLOUDY    36  28  75 SW18G25   29.96R WCI  25
VALPARAISO     CLOUDY    38  28  67 SW25G31   29.92R WCI  27

$$

LMZ046-743>745-251700-
SOUTHERN LAKE MICHIGAN

STATION/POSITION TIME  TEMP    WIND        PRES    WAVE
                       AIR SEA DIR/SP/G            HT
                 (UTC) (F)     (DEG/KT/KT) (MB)    (FT)
BURNS HARBOR     1540   36     240/ 21/ 26 1012.9R
MICHIGAN CITY    1540   35     220/ 23/ 29   N/A

$$

INZ004-005-014>016-021>024-251700-
NORTH CENTRAL INDIANA

CITY           SKY/WX    TMP DP  RH WIND       PRES   REMARKS
ELKHART        CLOUDY    37  27  65 SW18G29   29.91R WCI  27
GOSHEN         CLOUDY    36  27  69 SW21G28   29.91R WCI  25
LOGANSPORT +   CLOUDY    36  30  80 W17G28    29.98S WCI  25
PERU/GRISSOM   CLOUDY    37  34  87 SW21      29.96R WCI  27
ROCHESTER +    PTSUNNY   37  30  75 W18G26    29.95R WCI  27
SOUTH BEND     PTSUNNY   37  26  64 W21G29    29.90R WCI  26
WARSAW +       CLOUDY    36  28  75 E21G28    29.93R WCI  24

$$

INZ006>009-017-018-025>027-251700-
NORTHEAST INDIANA

CITY           SKY/WX    TMP DP  RH WIND       PRES   REMARKS
AUBURN +       CLOUDY    36  30  80 SW14G24   29.93R WCI  27
FORT WAYNE     CLOUDY    38  30  73 W17G31    29.94R WCI  28
HUNTINGTON +   CLOUDY    36  29  76 W20G28    29.96R WCI  25
KENDALLVILLE + CLOUDY    35  29  78 SW16      29.91R WCI  26

$$

INZ028-029-035-036-043>045-051>053-251700-
WEST CENTRAL INDIANA

CITY           SKY/WX    TMP DP  RH WIND       PRES   REMARKS
CRAWFORDSVL +  CLOUDY    37  32  84 SW17        N/A  WCI  27
GREENCASTLE +  PTSUNNY   39  32  75 SW7       30.03R WCI  34
LAFAYETTE      CLOUDY    37  29  72 W12G24    29.99R WCI  29
TERRE HAUTE    FAIR      41  33  73 W17       30.06R

$$

INZ030>032-037>040-046>048-054>057-064-065-251700-
CENTRAL INDIANA

CITY           SKY/WX    TMP DP  RH WIND       PRES   REMARKS
COLUMBUS       PTSUNNY   41 N/A N/A W10G17    30.05R
FRANKFORT +    CLOUDY    39  33  78 W24       30.01S WCI  28
GREENWOOD *+   FAIR      39 -48   2 W13G21    30.02S WCI  31
INDIANAPOLIS   PTSUNNY   42  33  70 SW17      30.01R
-EAGLE CREEK   FAIR      41  30  65 W8G18     30.01R
KOKOMO +       CLOUDY    38  30  73 W22G30    29.98R WCI  27
MARION +       CLOUDY    35  31  83 W21G28    29.99R WCI  24
MT COMFORT *+  FAIR      41  36  81 SW14      30.01R
SHELBYVILLE    FAIR      42  32  67 SW15      30.02R
ZIONSVILLE +   CLOUDY    36  31  83 SW15G23   30.01R WCI  26

$$

INZ033-034-041-042-049-050-058-059-251700-
EAST CENTRAL INDIANA

CITY           SKY/WX    TMP DP  RH WIND       PRES   REMARKS
MUNCIE         FAIR      41  32  70 W15G23    29.97R
RICHMOND +     PTSUNNY   37  34  87 W18       30.00R WCI  27

$$

INZ060-061-067>069-081>083-085>088-251700-
SOUTHWEST INDIANA

CITY           SKY/WX    TMP DP  RH WIND       PRES   REMARKS
EVANSVILLE     FAIR      44  35  70 W10       30.13R
HUNTINGBURG +  FAIR      44  37  76 SW10      30.12R
WASHINGTON +   FAIR      43  33  66 SW12      30.09R

$$

INZ062-063-066-070>080-084-089>092-251700-
SOUTH CENTRAL AND SOUTHEAST INDIANA

CITY           SKY/WX    TMP DP  RH WIND       PRES   REMARKS
BATESVILLE +   MOSUNNY   41  36  81 MISG      30.03R
BEDFORD +      FAIR      41  30  65 W12       30.06R
BLOOMINGTON    FAIR      43  32  65 SW14      30.04R
FRENCH LICK *+ FAIR      41  28  60 W13       30.10R
MADISON *+     FAIR      43  32  65 SW10      30.08R
NORTH VERNON + FAIR      41  32  70 W10       30.06R
SEYMOUR +      FAIR      45  32  61 W14       30.07R

$$





USA.gov is the U.S. government's official web portal to all federal, state and local government web resources and services.